Cherry Point, NC

11:27 AM EST on February 06, 2016 (GMT -0500)
Cherry Point Marine Corps Air Station

Weather History for KNKT - February, 2013

Change the Weather History Date:

Friday, February 15, 2013

  Actual Average Record
Temperature  
Mean Temperature 46 °F -  
Max Temperature 59 °F 56 °F 75 °F (2001)
Min Temperature 34 °F 35 °F 19 °F (1999)
Degree Days  
Heating Degree Days 18    
Moisture  
Dew Point 35 °F    
Average Humidity 73    
Maximum Humidity 93    
Minimum Humidity 33    
Precipitation  
Precipitation 0.00 in - - ()
Sea Level Pressure  
Sea Level Pressure 30.04 in    
Wind  
Wind Speed 2 mph ()    
Max Wind Speed 7 mph    
Max Gust Speed -    
Visibility 8.1 miles    
Events Fog    
Averages and records for this station are not official NWS values.
T = Trace of Precipitation, MM = Missing Value Source: Averaged Metar Reports

Daily Weather History Graph

Daily Weather History Graph

Search for Another Location

Airport or City:

Trip Planner

Search our weather history database for the weather conditions in past years. The results will help you decide how hot, cold, wet, or windy it might be!

Date:

Astronomy

Feb. 15, 2013 Rise Set
Actual Time 6:53 AM EST 5:50 PM EST
Civil Twilight 6:27 AM EST 6:16 PM EST
Nautical Twilight 5:57 AM EST 6:46 PM EST
Astronomical Twilight 5:28 AM EST 7:15 PM EST
Moon 9:43 AM EST (2/15) 11:32 PM EST (2/15)
Length of Visible Light 11h 49m
Length of Day
10h 57m
Waxing Crescent, 30% of the Moon is Illuminated
Feb 15
Waxing Crescent
Feb 17
First Quarter
Feb 25
Full
Mar 4
Last Quarter
Mar 11
New

Hourly Weather History & Observations

Time (EST) Temp. Windchill Dew Point Humidity Pressure Visibility Wind Dir Wind Speed Gust Speed Precip Events Conditions
12:54 AM 39.9 °F - 37.0 °F 89% 30.08 in 7.0 mi Calm Calm - N/A   Clear
1:54 AM 39.0 °F 36.8 °F 35.1 °F 86% 30.07 in 10.0 mi North 3.5 mph - N/A   Clear
2:54 AM 39.0 °F - 36.0 °F 89% 30.06 in 7.0 mi Calm Calm - N/A   Clear
3:54 AM 34.0 °F - 32.0 °F 92% 30.07 in 4.0 mi Calm Calm - N/A   Clear
4:54 AM 35.1 °F - 33.1 °F 92% 30.06 in 7.0 mi Calm Calm - N/A   Clear
5:19 AM 35.6 °F - 33.8 °F 93% 30.08 in 1.8 mi Calm Calm - N/A   Clear
5:27 AM 35.6 °F - 33.8 °F 93% 30.08 in 6.0 mi Calm Calm - N/A   Clear
5:54 AM 37.0 °F - 34.0 °F 89% 30.06 in 6.0 mi Calm Calm - N/A   Clear
6:54 AM 36.0 °F - 34.0 °F 93% 30.07 in 6.0 mi Calm Calm - N/A   Clear
7:54 AM 37.9 °F - 36.0 °F 93% 30.09 in 3.0 mi Calm Calm - N/A Fog Shallow Fog
8:54 AM 48.9 °F - 41.0 °F 74% 30.10 in 7.0 mi North 3.5 mph - N/A   Clear
9:54 AM 52.0 °F - 37.0 °F 57% 30.10 in 10.0 mi Variable 5.8 mph - N/A   Scattered Clouds
10:54 AM 54.0 °F - 36.0 °F 51% 30.09 in 10.0 mi NNE 6.9 mph - N/A   Clear
11:54 AM 55.0 °F - 33.1 °F 43% 30.07 in 10.0 mi Variable 6.9 mph - N/A   Clear
12:54 PM 57.0 °F - 28.0 °F 33% 30.05 in 10.0 mi Variable 4.6 mph - N/A   Partly Cloudy
1:54 PM 57.9 °F - 30.9 °F 36% 30.02 in 10.0 mi Variable 5.8 mph - N/A   Partly Cloudy
2:54 PM 59.0 °F - 30.0 °F 33% 30.00 in 10.0 mi Variable 4.6 mph - N/A   Partly Cloudy
3:54 PM 57.9 °F - 32.0 °F 37% 29.99 in 10.0 mi East 4.6 mph - N/A   Partly Cloudy
4:54 PM 55.9 °F - 37.9 °F 51% 29.98 in 10.0 mi South 4.6 mph - N/A   Clear
5:54 PM 50.0 °F - 39.0 °F 66% 29.98 in 10.0 mi South 4.6 mph - N/A   Clear
6:54 PM 48.0 °F - 37.9 °F 68% 29.98 in 10.0 mi Calm Calm - N/A   Clear
7:54 PM 45.0 °F - 37.9 °F 76% 29.99 in 10.0 mi Calm Calm - N/A   Clear
8:54 PM 41.0 °F - 37.0 °F 86% 29.99 in 10.0 mi Calm Calm - N/A   Clear
9:54 PM 41.0 °F - 37.0 °F 86% 29.99 in 10.0 mi Calm Calm - N/A   Clear
10:54 PM 37.9 °F - 35.1 °F 89% 29.98 in 10.0 mi Calm Calm - N/A   Clear
11:54 PM 36.0 °F - 34.0 °F 93% 29.97 in 7.0 mi Calm Calm - N/A   Clear